Regional Weather Roundup
Issued by NWS

Home | Current Version | Previous Version | Graphics & Text | Print | Product List | Glossary Off
Versions: 1 2 3 4 5 6 7 8 9 10 11 12 13 14 15 16 17 18 19 20 21 22 23 24 25 26 27 28 29 30 31 32 33 34 35 36 37 38 39 40 41 42 43 44 45 46 47 48 49 50

000
ASUS43 KMKX 171421
RWRWI

WISCONSIN REGIONAL WEATHER ROUNDUP
NATIONAL WEATHER SERVICE MILWAUKEE/SULLIVAN WI
900 AM CDT THU AUG 17 2017

NOTE: "FAIR" INDICATES FEW OR NO CLOUDS BELOW 12,000 FEET WITH NO
SIGNIFICANT WEATHER AND/OR OBSTRUCTIONS TO VISIBILITY.

WIZ001-002-006>008-014>016-023>028-171500-
NORTHWEST WISCONSIN

CITY           SKY/WX    TMP DP  RH WIND       PRES   REMARKS
SUPERIOR ARPT  RAIN      61  61 100 NE14G22   29.61F
ASHLAND        CLOUDY    63  62  97 NE10      29.59F
HAYWARD        RAIN      65  63  93 NE5       29.58F FOG
SIREN          LGT RAIN  66  65  97 NE3       29.57S
CUMBERLAND     LGT RAIN  63  63 100 E6        29.56S
RICE LAKE      RAIN      65  65  97 E6        29.57S
CHETEK         HVY RAIN  66  66  99 E3        29.55F
LADYSMITH      CLOUDY    66  65  97 SE3       29.59F
EAU CLAIRE     LGT RAIN  66  65  96 SE10      29.50F VSB 1
MENOMONIE      DRIZZLE   66  66  99 E8        29.50F
NEW RICHMOND   CLOUDY    68  67  98 NE6       29.54R
OSCEOLA        CLOUDY    69  69 100 NE5       29.58R
$$

WIZ003>005-009-010-017-018-171500-
NORTH CENTRAL WISCONSIN

CITY           SKY/WX    TMP DP  RH WIND       PRES   REMARKS
MANITOWISH WTR RAIN      65  65 100 E3        29.61F
ARBOR VITAE    DRIZZLE   67  66  96 SE7       29.61F
WOODRUFF       DRIZZLE   67  66  96 SE7       29.61F
RHINELANDER    CLOUDY    68  68 100 SE3       29.63F
EAGLE RIVER    DRIZZLE   67  67 100 SE5       29.63F
LAND O LAKES   CLOUDY    67  67  99 SE8       29.65F
PHILLIPS       CLOUDY    66  66 100 S6        29.59F
TOMAHAWK         N/A     67  66  96 CALM      29.61F FOG
MEDFORD        CLOUDY    65  64  94 S5        29.61F
MERRILL        CLOUDY    70  66  88 SW9       29.62F
$$

WIZ029-030-035-036-043>047-171500-
CENTRAL WISCONSIN

CITY           SKY/WX    TMP DP  RH WIND       PRES   REMARKS
WAUSAU         CLOUDY    68  64  87 S13       29.61S
MOSINEE        CLOUDY    70  66  88 S12       29.63F
MARSHFIELD     CLOUDY    67  63  87 S13       29.61S
STEVENS POINT  PTSUNNY   69  65  86 S13G22    29.64S
WAUPACA        PTSUNNY   76  71  85 SW10      29.64F
WAUTOMA        CLOUDY    72  66  83 SW9       29.66S
WISC RAPIDS    CLOUDY    69  65  86 S13       29.65S
CAMP DOUGLAS   CLOUDY    70  64  83 S6G17     29.63F
$$

WIZ011>013-019>022-031-037>040-048>050-171500-
NORTHEAST WISCONSIN

CITY           SKY/WX    TMP DP  RH WIND       PRES   REMARKS
ANTIGO         CLOUDY    68  68 100 S13       29.63F
SHAWANO        MOSUNNY   79  70  73 SW7       29.63F HX  81
OCONTO         CLOUDY    73  71  91 S6        29.64F
STURGEON BAY   CLOUDY    70  68  94 SE12G20   29.68S
GREEN BAY      PTSUNNY   75  73  93 S10       29.66S
MANITOWOC      CLOUDY    73  70  90 S13       29.68F
APPLETON       PTSUNNY   73  72  94 SW14      29.65F
CLINTONVILLE   MOSUNNY   77  66  69 SW15G22   29.64S
OSHKOSH        PTSUNNY   75  69  81 S14G24    29.67R
$$

WIZ032>034-041-042-053>061-171500-
SOUTHWEST WISCONSIN

CITY           SKY/WX    TMP DP  RH WIND       PRES   REMARKS
LA CROSSE      CLOUDY    73  64  73 S13G24    29.59S
SPARTA         CLOUDY    68  64  86 S10       29.62S
VIROQUA        CLOUDY    67  66  95 SW10G21   29.65F
BOSCOBEL       CLOUDY    70  64  81 SW8G16    29.68S
PRAIRIE DU CHI CLOUDY    70  64  80 SW9G16    29.68S
PLATTEVILLE    CLOUDY    69  67  96 SW14      29.73S
$$

WIZ056-057-062-063-064-067-068-171500-
SOUTH CENTRAL WISCONSIN

CITY           SKY/WX    TMP DP  RH WIND       PRES   REMARKS
REEDSBURG      CLOUDY    68  67  94 S12       29.67S
BARABOO/DELLS  CLOUDY    70  63  79 SW14      29.68S
LONE ROCK      CLOUDY    70  66  87 SW9       29.68F
MINERAL POINT  CLOUDY    70  68  94 SW7       29.72S
MADISON        PTSUNNY   74  69  85 SW7       29.69S
MIDDLETON      CLOUDY    74  66  74 SW14G23   29.70S
WATERTOWN      PTSUNNY   74  72  94 SW14G20   29.71S
MONROE         CLOUDY    72  66  83 SW17G26   29.73S
JANESVILLE     CLOUDY    73  73 100 SW12G17   29.73S
$$

WIZ051-052-058>065-066-070>072-171500-
SOUTHEAST WISCONSIN

CITY           SKY/WX    TMP DP  RH WIND       PRES   REMARKS
MILWAUKEE      CLOUDY    74  71  91 S14       29.73S
WAUKESHA       CLOUDY    70  68  94 S9        29.73F
MILWAUKEE/TIMM CLOUDY    72  66  83 S12       29.72F
RACINE         PTSUNNY   74  71  91 S8        29.74F
KENOSHA        PTSUNNY   75  70  84 SW12      29.74F
FOND DU LAC    MOSUNNY   76  68  76 S15       29.68S
SHEBOYGAN      CLOUDY    74  73  97 S10       29.70R
WEST BEND      CLOUDY    72  70  94 SW7       29.71S
JUNEAU         PTSUNNY   73  69  87 S14       29.71F
$$

LSZ147-162-171500-
LAKE SUPERIOR

STATION/POSITION TIME  TEMP    WIND        PRES    WAVE
                       AIR SEA DIR/SP/G            HT/PER
                 (UTC) (F)     (DEG/KT/KT) (MB)    (FT/S)
W MID LAKE BUOY  1350   61 60   50/ 19/ 23 1002.8F   4/ 5
DEVILS ISLAND    1400   60      50/ 23/ 28 1002.5F
SAXON HARBOR     1330   65      60/ 12/ 15 1001.7F
$$

LMZ867-665-643>646-171500-
LAKE MICHIGAN

STATION/POSITION TIME  TEMP    WIND        PRES    WAVE
                       AIR SEA DIR/SP/G            HT/PER
                 (UTC) (F)     (DEG/KT/KT) (MB)    (FT/S)
S GREEN BAY BUOY 1330   72 71  170/ 14/ 16 1004.1R
N MID LAKE BUOY  1350   68 67  150/ 17/ 21 1005.4F   4/ 5
NORTHPORT PIER   1340   69     160/  7/ 15 1004.4F
KEWAUNEE LAKESHO 1354   70     150/ 10/ 12 1004.5F
SHEBOYGAN LAKESH 1400   71     180/ 20/ 22 1005.0S
PORT WASHINGTON  1330   73     190/ 10/ 15 1006.8R
ATWATER BUOY     1309   72 71  180/ 14/ 17 1006.6F
MILWAUKEE LAKESH 1400   73     200/ 12/ 14   N/A
S MID LAKE BUOY  1350   72 71  200/ 17/ 21 1007.3F   4/ 5
KENOSHA   LAKESH 1400   74     180/  8/ 15 1006.8
$$

TC  - TEMPERATURE IN CELSIUS
VSB - VISIBILITY IN STATUTE MILES
WCI - WIND CHILL INDEX
HX  - HEAT INDEX





USA.gov is the U.S. government's official web portal to all federal, state and local government web resources and services.